Tracking 18957 objects as of 23-Jan-2018
HD Live streaming from Space Station
objects crossing your sky now

GSAT0203

Track GSAT0203 now!
GSAT0203 is classified as:


NORAD ID: 40544
Int'l Code: 2015-017A
Perigee: 23,215.2 km
Apogee: 23,243.1 km
Inclination: 55.8 °
Period: 844.7 minutes
Semi major axis: 29600 km
RCS: Unknown
Launch date: March 27, 2015
Source: European Space Agency (ESA)
Launch site: FRENCH GUIANA (FRGUI)

GSAT0203 is a member of European's Galileo navigation satellite constellation.
aabbcc
Your satellite tracking list
Your tracking list is empty




NASA's NSSDC Master Catalog

Two Line Element Set (TLE):
1 40544U 15017A   18022.37594456 -.00000029 +00000-0 +00000-0 0  9999
2 40544 055.7842 065.8408 0004721 254.1618 105.8580 01.70475444016901
Source of the keplerian elements: AFSPC